[Date Prev][Date Next][Thread Prev][Thread Next] - [Date Index][Thread Index][Author Index]
2 Line ISS Keps 5-25
- Subject: [sarex] 2 Line ISS Keps 5-25
- From: "Dave Larsen PhD" <doc@xxxxxxxxxxx>
- Date: Tue, 24 May 2005 19:51:51 -0700
ISS
1 25544U 98067A 05144.99476970 .00015455 00000-0 11959-3 0 5438
2 25544 051.6459 019.7178 0005789 159.4690 343.1829 15.72082316372038
----
Via the sarex mailing list at AMSAT.ORG courtesy of AMSAT-NA.
To unsubscribe, send "unsubscribe sarex" to Majordomo@amsat.org
AMSAT Home